Location: Oshawa
(43.9000°N, 78.8670°W)
Time: 22:44:10
(UTC-04:00)

Iridium 54 - Visible Passes

Search period start: 22 May 2015 00:00
Search period end: 01 June 2015 00:00
Orbit: 776 x 779 km, 86.4° (Epoch: 22 May)

Date Brightness Start Highest point End Pass type
(mag) Time Alt. Az. Time Alt. Az. Time Alt. Az.
23 May 8.0 04:40:07 10° SE 04:44:00 22° E 04:48:01 10° NNE visible
24 May 8.5 04:08:49 10° E 04:10:46 12° ENE 04:12:59 10° NE visible
26 May 7.4 04:39:28 10° SE 04:43:57 31° E 04:48:33 10° NNE visible
27 May 8.2 04:07:22 10° ESE 04:10:40 18° E 04:14:10 10° NE visible
29 May 6.7 04:39:04 10° SSE 04:43:57 44° E 04:48:54 10° NNE visible
30 May 7.7 04:06:29 10° SE 04:10:36 25° E 04:14:51 10° NNE visible
31 May 8.2 03:34:50 10° ESE 03:37:20 14° ENE 03:40:07 10° NE visible
